Reflectivity
-20 -20 -20 -20 -20 -20 -20 -20 -20 -20 -20 -20 -20 -20 -20 -20 -20 -20 -20 -20 -20 -20 -20 -20 -20 -20 -20 -20 -20 -20 -20 -20 -20 -20 -20 -20 -20 -20 -20 -20 -20 -20 -20 -20
-20 -20 -20 -20 -20 -20 -20 -20 -20 -20 -20 -20 -20 -20 -20 -20 -20 -20 -20 -20 -20 -20 -20 -20 -20 -15 -3 -20 -20 -20 -20 -20 -20 -20 -20 -20 -20 -20 -20 -20 -20 -20 -20 -20
-16 -11 10 4 -20 -20 -20 -20 -20 -20 -20 -20 -20 -20 -20 -20 -20 -20 -20 -20 -20 -20 -20 -19 -18 -4 -20 -20 -20 -20 -20 -20 -20 -20 -20 -20 -20 -20 -20 -20 -20 -20 -20 -20
12 -9 16 15 -20 -20 -15 -18 -20 -20 -20 -20 -20 -20 -20 -20 -20 -20 -20 -20 -20 -20 -14 -18 -10 -20 -20 -9 -19 -20 -20 -20 -20 -20 -20 -20 -20 -20 -20 -20 -20 -20 -20 -20
20 23 0 -20 -20 -20 -20 -20 -20 -20 -20 -20 -20 -20 -20 -20 -20 -20 -16 -3 -16 -20 -20 -18 -20 -19 10 0 -20 -20 -20 -20 -20 -20 -20 -20 -20 -20 -20 -20 -20 -20 -20 -20
23 16 -3 -20 -20 -20 -11 -19 -20 -20 -20 -20 -20 -20 -20 -20 -20 -20 -20 -20 -20 2 -1 -16 -3 7 -11 -20 -20 -20 -20 -20 -20 -20 -20 -20 -20 -20 -20 -20 -20 -20 -20 -20
21 14 -18 -20 -20 -20 3 -19 -20 -19 -11 -3 -18 -20 -20 -20 -20 -20 -20 -15 -20 -20 -14 13 9 -20 -20 -20 -20 -20 -20 -20 -20 -20 -20 -20 -20 -20 -20 -20 -20 -20 -20 -20
20 19 7 -20 -20 -20 -20 -20 -20 -12 -13 -20 -20 -20 -20 -20 -20 -20 -20 -15 -6 26 7 -20 -20 -20 -20 -20 -20 -20 -20 -20 -20 -20 -20 -18 -13 -20 -20 -20 -20 -20 -20 -20
20 17 -1 -20 -20 -20 -20 -20 -20 -20 -20 -20 -20 -20 -20 -20 -20 -19 -5 12 0 -11 -20 -20 -20 -20 -20 -20 -20 -20 -20 -20 -20 -20 -20 -20 -18 -19 -4 7 3 -5 -20 -20
13 -11 -12 -20 -20 -20 -20 -20 -20 -20 -20 -20 -20 -20 -20 -20 -20 -7 -1 -20 -20 -20 -20 -20 -20 -20 -20 -20 -20 -20 -20 -20 -20 -20 -20 -20 -20 -2 -20 -20 -20 -20 -20 -20
1 -18 -17 3 7 7 5 2 6 -1 -20 -20 -20 -20 -20 -20 -20 -20 -20 -20 -20 -20 -20 -20 -20 -20 -20 -20 -20 -20 -20 -20 -20 -20 -20 -20 -20 -20 -20 -20 -20 -20 -20 -20
-20 3 5 1 -1 -18 -20 -20 -20 -20 -20 -20 -20 -20 -20 -20 -20 -20 -20 -20 -20 -20 -20 -20 -20 -20 -20 -20 -20 -20 -20 -20 -20 -20 -20 -20 -20 -20 -20 -18 -20 -20 -20 -20
-9 -19 -20 -20 -20 -20 -20 -9 -8 -20 -20 -20 -20 -20 -20 -20 -20 -20 -20 -20 -20 -20 -20 -20 -20 -20 -20 -20 -20 -20 -20 -20 -20 -20 -20 -20 -20 -20 -20 -20 -20 -20 -18 -1
-20 -20 -20 -20 -20 -15 5 11 3 -15 -20 -20 -20 -20 -20 -20 -20 -20 -20 -20 -20 -20 -20 -20 -20 -20 -20 -20 -20 -20 -20 -20 -20 -20 -20 -20 -20 -20 -20 -20 -20 -19 -20 -20
-20 -20 -20 -20 -20 -14 -14 -15 -20 -16 -2 -17 -20 -20 -20 -20 -20 -20 -20 -20 -20 -20 -20 -20 -20 -20 -20 -20 -20 -20 -20 -20 -20 -20 -20 -20 -20 -20 -20 -20 -20 -20 -15 -20
7 1 0 1 -20 -20 -20 -20 -8 -3 -20 -20 -20 -20 -20 -20 -20 -20 -20 -20 -20 -20 -20 -20 -20 -20 -20 -20 -20 -20 -20 -20 -20 -20 -20 -20 -20 -20 -20 -20 -20 -20 -18 -20
-20 -20 -20 -20 -17 -19 -3 -2 -17 -20 -20 -20 -20 -20 -20 -20 -20 -20 -20 -20 -20 -20 -20 -20 -20 -20 -20 -20 -20 -20 -20 -20 -20 -20 -20 -20 -20 -20 -20 -20 -20 -20 -20 -13
-20 -20 -9 -14 -19 -20 -20 -20 -20 -20 -20 -20 -20 -20 -20 -20 -20 -20 -20 -20 -20 -20 -20 -20 -20 -20 -20 -20 -20 -20 -20 -20 -20 -20 -20 -20 -20 -20 -20 -20 -20 -20 -20 -20
-20 -20 -20 -20 -20 -20 -20 -20 -20 -20 -20 -20 -20 -20 -20 -20 -20 -20 -20 -20 -20 -20 -20 -20 -20 -20 -20 -20 -20 -20 -20 -20 -20 -20 -20 -20 -20 -20 -20 -20 -20 -20 -20 -20
-12 -15 -18 -20 -20 -20 -20 -20 -20 -20 -20 -20 -20 -20 -20 -20 -20 -20 -20 -20 -20 -20 -20 -20 -20 -20 -20 -20 -20 -20 -20 -20 -20 -20 -20 -20 -20 -20 -20 -20 -20 -20 -20 -20
-20 -20 -20 -20 -20 -20 -20 -20 -20 -20 -20 -20 -20 -20 -20 -20 -20 -20 -20 -20 -20 -20 -20 -20 -20 -20 -20 -20 -20 -20 -20 -20 -20 -20 -20 -20 -20 -20 -20 -20 -20 -20 -20 -20
-20 -20 -20 -20 -20 -20 -20 -20 -20 -20 -20 -20 -20 -20 -20 -20 -20 -20 -20 -20 -20 -20 -20 -20 -20 -20 -20 -20 -20 -20 -20 -19 -19 -19 -18 -20 -20 -20 -20 -20 -20 -20 -20 -20
-20 -20 -20 -20 -20 -20 -20 -20 -20 -20 -20 -20 -20 -20 -20 -20 -20 -20 -20 -20 -20 -20 -20 -20 -20 -20 -20 -20 -20 -20 -16 -17 -19 -19 -20 -20 -20 -20 -20 -20 -20 -20 -20 -20
-20 -20 -20 -20 -20 -20 -20 -20 -20 -20 -20 -20 -20 -20 -20 -20 -20 -20 -20 -20 -20 -20 -20 -20 -20 -20 -20 -20 -20 -20 -20 -20 -20 -20 -20 -20 -20 -20 -20 -20 -20 -20 -20 -20
-20 -20 -20 -20 -20 -20 -20 -20 -20 -20 -20 -20 -20 -20 -20 -20 -20 -20 -20 -20 -20 -20 -20 -20 -20 -20 -20 -20 -20 -20 -20 -20 -20 -20 -20 -20 -20 -20 -20 -20 -20 -20 -20 -20
-20 -20 -20 -20 -20 -20 -20 -20 -20 -20 -20 -20 -20 -20 -20 -20 -20 -20 -20 -20 -20 -20 -20 -20 -20 -20 -20 -20 -20 -20 -20 -20 -20 -20 -20 -20 -20 -20 -20 -20 -20 -20 -20 -20
-20 -20 -20 -20 -20 -20 -20 -20 -20 -20 -20 -20 -20 -20 -20 -20 -20 -20 -20 -20 -20 -20 -20 -20 -20 -20 -20 -20 -20 -20 -20 -20 -20 -20 -20 -20 -20 -20 -20 -20 -20 -20 -20 -20
Wind_Speed
11 16 6 14 24 22 27 25 23 19 15 12 16 19 22 20 15 16 15 14 13 12 10 9 8 7 7 7 6 5 5 5 6 6 6 6 6 6 6 6 5 5 8 6
11 15 13 14 19 25 25 22 26 10 12 10 13 9 13 19 18 16 14 12 12 12 11 8 8 8 7 6 5 5 6 6 5 5 5 5 6 6 6 7 7 8 8 8
12 4 1 14 21 22 19 15 19 23 9 8 10 17 21 19 18 17 15 14 13 11 9 9 9 8 6 6 5 6 6 5 4 4 4 4 7 8 9 9 7 8 8 6
3 9 10 7 4 20 26 15 9 5 13 14 18 15 15 16 19 18 17 14 12 11 10 9 7 7 7 5 5 6 6 3 3 4 4 6 6 7 8 8 8 8 7 7
6 8 6 6 5 9 16 14 14 9 10 13 12 9 6 11 14 17 18 13 12 11 10 8 8 7 6 6 6 5 1 2 4 5 6 7 8 9 8 9 11 9 9 9
4 6 13 1 3 5 5 18 10 14 16 17 17 10 8 12 19 18 16 15 14 12 10 10 6 6 7 5 4 3 3 3 5 7 8 9 9 9 7 8 9 7 9 9
3 4 7 6 3 3 13 6 9 19 15 16 17 9 14 17 17 18 16 16 13 10 10 8 5 6 6 5 3 3 1 2 4 7 9 8 8 8 7 8 9 9 9 9
3 1 11 8 3 12 7 2 1 4 10 18 12 21 24 20 19 19 18 15 13 10 9 6 6 6 5 4 3 1 3 5 6 6 6 7 10 8 8 8 8 8 8 8
9 8 2 2 1 0 1 5 4 9 9 15 21 21 20 19 15 14 16 13 10 11 10 6 5 5 5 2 3 5 6 5 5 5 5 5 6 8 7 7 9 9 7 7
2 5 5 3 3 2 4 6 8 13 16 18 21 19 18 16 15 13 12 11 9 10 8 6 5 5 4 4 5 6 3 3 4 4 6 5 3 4 5 6 7 7 7 8
4 1 5 2 4 9 9 12 16 14 18 20 20 15 15 13 12 11 10 7 8 8 7 7 6 5 4 5 5 2 3 3 4 3 3 6 5 5 6 7 7 8 8 8
8 10 6 8 11 16 19 16 18 21 15 12 15 15 13 11 10 10 10 7 8 7 8 7 6 5 5 4 2 0 3 3 3 3 3 4 5 7 8 13 15 16 16 13
5 7 4 11 14 14 19 16 14 16 16 19 11 14 12 12 8 10 9 9 9 9 8 7 6 5 4 3 3 3 4 4 2 3 3 3 4 6 8 9 15 12 11 14
9 12 9 15 11 14 17 15 14 13 12 12 12 11 11 11 7 9 10 9 8 8 7 6 5 4 4 4 4 5 4 6 3 3 3 4 3 6 5 7 10 9 9 10
11 4 11 14 15 15 16 17 16 14 12 11 11 12 11 12 11 8 6 6 6 5 4 4 4 7 5 5 5 5 4 3 4 3 3 4 4 4 5 6 7 9 9 9
9 13 16 19 17 16 16 15 15 12 12 11 11 11 12 11 9 7 7 7 8 7 8 7 7 8 6 6 6 4 5 7 4 3 3 3 3 4 5 5 7 8 8 10
17 11 14 15 18 18 15 13 13 13 10 11 11 10 9 8 7 6 7 8 7 7 8 8 12 6 7 7 7 6 4 4 6 3 3 4 4 4 4 6 9 10 10 8
14 16 18 20 16 15 12 10 10 10 9 9 8 8 8 9 11 10 9 7 1 4 6 10 8 6 6 7 8 6 5 5 4 4 3 3 3 3 3 4 8 10 11 10
14 14 13 14 15 13 11 10 10 9 8 8 8 10 11 10 8 8 6 7 7 7 11 7 7 8 9 9 8 6 7 6 5 3 3 3 3 3 3 4 6 8 9 11
10 11 12 10 9 10 9 6 8 7 5 7 6 6 6 5 1 3 3 6 7 6 2 5 5 6 7 9 9 6 6 6 5 4 3 2 3 3 4 6 6 6 8 10
11 12 12 11 9 8 7 7 9 8 4 6 7 5 5 3 3 5 3 3 5 6 6 5 6 5 5 5 4 5 6 5 4 4 3 3 3 4 4 5 5 5 7 9
11 10 11 11 12 9 6 7 9 8 7 7 6 6 5 2 2 1 4 2 2 5 2 1 1 4 4 4 2 2 2 2 2 3 3 3 3 4 5 5 5 5 8 9
9 10 10 10 11 11 8 6 6 7 8 7 6 5 4 2 1 2 2 2 2 3 2 1 2 3 3 1 1 2 3 3 4 4 4 4 4 5 5 5 5 5 5 6
11 9 9 8 11 8 9 4 6 7 8 6 6 5 4 3 1 1 2 2 1 1 2 3 4 5 4 2 3 4 4 4 5 4 4 5 4 4 4 5 5 5 5 6
10 10 8 7 6 4 8 7 7 5 6 5 5 4 4 2 4 3 2 2 3 2 3 4 4 5 2 3 3 3 4 4 5 4 5 5 5 5 5 5 5 6 5 5
8 5 4 5 5 5 5 5 5 3 4 3 0 1 1 1 1 1 1 3 3 3 3 3 3 3 3 3 3 5 5 5 5 5 6 5 5 5 5 5 5 7 6 5
6 5 5 4 2 4 4 5 5 3 3 4 3 3 3 2 3 3 3 3 3 4 4 4 4 5 4 5 5 5 6 6 7 6 5 5 5 5 5 6 6 5 5 5
Wind_Direction
214 232 226 214 219 220 222 224 213 232 223 190 183 177 180 168 160 160 162 155 151 144 143 138 136 120 99 89 86 93 78 63 51 31 12 357 340 316 297 303 311 297 307 306
233 214 219 233 225 222 226 226 236 216 228 171 191 127 154 172 170 167 158 147 143 142 137 132 116 103 98 106 97 82 72 59 34 18 354 325 308 307 324 325 319 319 323 314
230 188 139 256 218 213 222 223 221 226 198 149 143 171 179 170 171 164 153 146 141 132 118 111 115 125 122 102 89 83 65 46 21 348 315 318 343 333 328 322 322 326 313 305
139 117 214 261 264 202 210 203 192 150 167 165 172 179 171 177 158 150 146 140 131 125 123 125 126 110 106 100 87 76 54 4 325 313 321 334 330 327 327 322 326 313 297 298
170 205 313 238 211 160 183 216 200 160 140 147 120 92 23 147 155 142 137 138 135 134 131 121 112 118 108 87 76 76 42 330 332 320 333 341 342 335 329 324 322 309 308 305
168 177 211 160 208 159 103 248 186 178 181 146 141 172 194 161 141 135 133 133 134 131 120 109 101 112 101 115 121 184 197 8 353 345 344 343 328 318 308 307 301 302 301 301
157 221 285 235 203 167 183 235 185 192 188 161 189 199 139 144 137 135 136 134 129 129 108 117 130 117 127 136 183 229 115 54 10 1 348 329 318 309 304 307 306 305 302 302
141 171 256 177 113 172 213 33 187 132 162 167 126 132 141 142 142 143 135 130 111 124 128 119 117 116 143 156 221 99 43 30 13 356 333 322 318 314 313 306 302 302 303 306
188 205 241 221 320 16 118 131 173 124 129 140 135 140 140 137 136 132 128 130 138 127 120 125 135 139 133 166 75 51 39 12 352 321 296 299 307 315 318 319 319 316 311 306
135 209 205 164 68 127 174 130 121 123 131 136 135 138 135 133 134 135 135 136 128 127 134 143 136 118 135 106 67 61 26 320 294 313 311 303 297 288 294 297 296 299 306 303
256 300 80 166 171 151 119 116 114 116 128 131 128 129 128 133 135 135 132 122 131 141 146 151 149 143 112 84 69 48 337 304 287 283 296 310 280 285 286 278 277 292 298 298
209 192 170 175 159 155 138 141 135 127 121 126 130 132 136 134 134 135 138 140 143 147 147 158 152 137 131 124 109 79 284 280 275 281 289 286 290 306 293 286 284 286 289 290
192 174 138 140 148 155 139 143 138 133 137 139 140 137 140 139 145 144 145 151 160 164 159 155 149 154 162 158 170 232 252 276 271 292 294 294 317 316 315 314 308 294 290 303
130 102 87 145 155 152 138 132 127 123 131 136 134 131 134 136 125 150 168 171 157 153 153 156 156 193 186 185 208 230 244 262 257 266 266 288 268 297 285 305 321 321 314 309
169 118 152 138 134 138 137 132 133 138 139 140 144 142 144 147 158 177 163 149 134 141 150 148 178 236 203 203 211 227 234 243 231 243 258 260 270 278 278 294 302 305 309 313
121 120 129 139 142 139 139 140 140 148 150 145 147 153 159 160 163 159 154 147 144 192 199 194 210 229 200 196 216 226 235 241 238 238 270 281 277 282 296 300 304 302 303 319
117 124 133 141 147 152 157 151 149 152 148 153 159 155 153 151 144 157 183 191 201 197 195 188 223 202 205 204 212 228 219 226 216 232 236 247 255 267 283 306 316 310 308 305
154 154 156 151 151 146 142 139 141 142 159 162 146 143 148 156 182 194 201 189 196 288 230 225 222 216 208 219 215 221 214 222 210 221 234 239 252 246 271 286 308 310 309 311
131 130 138 146 146 140 139 142 150 154 141 148 142 173 181 188 189 200 155 163 199 221 250 222 220 218 236 238 217 216 214 212 213 223 222 241 256 255 268 277 288 301 307 312
106 121 123 112 102 127 130 131 126 128 138 128 106 119 168 215 186 90 114 201 215 220 290 255 229 230 238 244 231 214 208 202 208 217 211 221 230 258 271 272 278 295 308 308
112 110 106 105 93 83 105 129 131 130 128 134 145 156 167 163 161 158 166 195 248 232 242 253 251 249 249 243 211 212 205 191 194 212 221 230 246 258 259 269 274 282 302 305
111 106 107 109 108 98 80 97 105 110 106 101 88 98 95 58 82 222 232 255 347 7 348 299 322 324 302 259 228 173 150 177 211 225 224 230 237 252 259 260 263 272 306 306
105 119 116 120 123 121 112 84 93 113 122 127 126 129 126 147 188 199 185 85 88 60 69 67 12 11 21 67 190 200 223 234 236 233 232 231 236 240 244 257 256 264 272 293
106 100 105 107 121 121 120 133 121 123 124 122 119 137 135 109 81 66 131 189 247 320 261 257 275 280 272 236 228 223 225 234 240 235 234 232 236 241 246 251 252 257 261 279
111 113 114 119 109 104 119 127 107 102 111 118 134 145 145 146 146 227 188 258 285 301 291 302 315 318 318 293 273 259 254 250 243 230 240 236 241 245 248 249 251 259 257 258
124 124 129 131 133 136 139 141 145 160 137 130 236 218 259 255 210 235 266 261 268 282 264 282 279 278 270 264 260 263 258 257 246 243 231 237 240 241 242 250 254 263 259 255
90 99 107 83 73 140 150 150 140 177 171 151 182 231 213 266 266 254 249 282 282 276 267 268 254 248 243 246 252 257 260 258 248 247 240 237 232 237 241 240 241 247 250 257